Year,Month,Day,Hour,Minute,Value (Times are PST for temperature in C)
2015,06,07,00,00,13.70
2015,06,07,00,01,13.70
2015,06,07,00,02,13.70
2015,06,07,00,03,13.60
2015,06,07,00,04,13.60
2015,06,07,00,05,13.60
2015,06,07,00,06,13.60
2015,06,07,00,07,13.60
2015,06,07,00,08,13.50
2015,06,07,00,09,13.50
2015,06,07,00,10,13.50
2015,06,07,00,11,13.40
2015,06,07,00,12,13.40
2015,06,07,00,13,13.40
2015,06,07,00,14,13.40
2015,06,07,00,15,13.40
2015,06,07,00,16,13.30
2015,06,07,00,17,13.30
2015,06,07,00,18,13.30
2015,06,07,00,19,13.30
2015,06,07,00,20,13.30
2015,06,07,00,21,13.30
2015,06,07,00,22,13.30
2015,06,07,00,23,13.30
2015,06,07,00,24,13.20
2015,06,07,00,25,13.20
2015,06,07,00,26,13.20
2015,06,07,00,27,13.20
2015,06,07,00,28,13.20
2015,06,07,00,29,13.20
2015,06,07,00,30,13.20
2015,06,07,00,31,13.20
2015,06,07,00,32,13.20
2015,06,07,00,33,13.20
2015,06,07,00,34,13.20
2015,06,07,00,35,13.20
2015,06,07,00,36,13.20
2015,06,07,00,37,13.20
2015,06,07,00,38,13.20
2015,06,07,00,39,13.20
2015,06,07,00,40,13.20
2015,06,07,00,41,13.20
2015,06,07,00,42,13.20
2015,06,07,00,43,13.20
2015,06,07,00,44,13.20
2015,06,07,00,45,13.20
2015,06,07,00,46,13.20
2015,06,07,00,47,13.20
2015,06,07,00,48,13.20
2015,06,07,00,49,13.20
2015,06,07,00,50,13.20
2015,06,07,00,51,13.20
2015,06,07,00,52,13.20
2015,06,07,00,53,13.20
2015,06,07,00,54,13.20
2015,06,07,00,55,13.20
2015,06,07,00,56,13.10
2015,06,07,00,57,13.10
2015,06,07,00,58,13.10
2015,06,07,00,59,13.10
2015,06,07,01,00,13.10
2015,06,07,01,01,13.10
2015,06,07,01,02,13.00
2015,06,07,01,03,13.00
2015,06,07,01,04,13.00
2015,06,07,01,05,12.90
2015,06,07,01,06,12.90
2015,06,07,01,07,12.90
2015,06,07,01,08,12.90
2015,06,07,01,09,12.90
2015,06,07,01,10,12.80
2015,06,07,01,11,12.80
2015,06,07,01,12,12.80
2015,06,07,01,13,12.80
2015,06,07,01,14,12.80
2015,06,07,01,15,12.80
2015,06,07,01,16,12.80
2015,06,07,01,17,12.70
2015,06,07,01,18,12.70
2015,06,07,01,19,12.70
2015,06,07,01,20,12.70
2015,06,07,01,21,12.70
2015,06,07,01,22,12.70
2015,06,07,01,23,12.70
2015,06,07,01,24,12.70
2015,06,07,01,25,12.70
2015,06,07,01,26,12.70
2015,06,07,01,27,12.70
2015,06,07,01,28,12.60
2015,06,07,01,29,12.60
2015,06,07,01,30,12.60
2015,06,07,01,31,12.60
2015,06,07,01,32,12.60
2015,06,07,01,33,12.60
2015,06,07,01,34,12.60
2015,06,07,01,35,12.50
2015,06,07,01,36,12.50
2015,06,07,01,37,12.50
2015,06,07,01,38,12.50
2015,06,07,01,39,12.50
2015,06,07,01,40,12.50
2015,06,07,01,41,12.40
2015,06,07,01,42,12.40
2015,06,07,01,43,12.40
2015,06,07,01,44,12.40
2015,06,07,01,45,12.40
2015,06,07,01,46,12.40
2015,06,07,01,47,12.40
2015,06,07,01,48,12.40
2015,06,07,01,49,12.40
2015,06,07,01,50,12.40
2015,06,07,01,51,12.40
2015,06,07,01,52,12.30
2015,06,07,01,53,12.30
2015,06,07,01,54,12.30
2015,06,07,01,55,12.30
2015,06,07,01,56,12.30
2015,06,07,01,57,12.30
2015,06,07,01,58,12.30
2015,06,07,01,59,12.30
2015,06,07,02,00,12.30
2015,06,07,02,01,12.30
2015,06,07,02,02,12.20
2015,06,07,02,03,12.20
2015,06,07,02,04,12.20
2015,06,07,02,05,12.20
2015,06,07,02,06,12.20
2015,06,07,02,07,12.20
2015,06,07,02,08,12.20
2015,06,07,02,09,12.20
2015,06,07,02,10,12.20
2015,06,07,02,11,12.20
2015,06,07,02,12,12.20
2015,06,07,02,13,12.20
2015,06,07,02,14,12.20
2015,06,07,02,15,12.20
2015,06,07,02,16,12.20
2015,06,07,02,17,12.20
2015,06,07,02,18,12.20
2015,06,07,02,19,12.20
2015,06,07,02,20,12.20
2015,06,07,02,21,12.20
2015,06,07,02,22,12.20
2015,06,07,02,23,12.20
2015,06,07,02,24,12.20
2015,06,07,02,25,12.20
2015,06,07,02,26,12.20
2015,06,07,02,27,12.20
2015,06,07,02,28,12.20
2015,06,07,02,29,12.20
2015,06,07,02,30,12.20
2015,06,07,02,31,12.20
2015,06,07,02,32,12.10
2015,06,07,02,33,12.10
2015,06,07,02,34,12.10
2015,06,07,02,35,12.10
2015,06,07,02,36,12.10
2015,06,07,02,37,12.10
2015,06,07,02,38,12.10
2015,06,07,02,39,12.10
2015,06,07,02,40,12.00
2015,06,07,02,41,12.00
2015,06,07,02,42,12.00
2015,06,07,02,43,12.00
2015,06,07,02,44,12.00
2015,06,07,02,45,12.00
2015,06,07,02,46,12.00
2015,06,07,02,47,12.00
2015,06,07,02,48,11.90
2015,06,07,02,49,11.90
2015,06,07,02,50,11.90
2015,06,07,02,51,11.90
2015,06,07,02,52,11.90
2015,06,07,02,53,11.90
2015,06,07,02,54,11.90
2015,06,07,02,55,11.90
2015,06,07,02,56,11.90
2015,06,07,02,57,11.90
2015,06,07,02,58,11.90
2015,06,07,02,59,11.90
2015,06,07,03,00,11.80
2015,06,07,03,01,11.80
2015,06,07,03,02,11.80
2015,06,07,03,03,11.80
2015,06,07,03,04,11.80
2015,06,07,03,05,11.80
2015,06,07,03,06,11.80
2015,06,07,03,07,11.80
2015,06,07,03,08,11.80
2015,06,07,03,09,11.90
2015,06,07,03,10,11.90
2015,06,07,03,11,11.80
2015,06,07,03,12,11.80
2015,06,07,03,13,11.80
2015,06,07,03,14,11.80
2015,06,07,03,15,11.80
2015,06,07,03,16,11.80
2015,06,07,03,17,11.80
2015,06,07,03,18,11.80
2015,06,07,03,19,11.80
2015,06,07,03,20,11.80
2015,06,07,03,21,11.80
2015,06,07,03,22,11.80
2015,06,07,03,23,11.80
2015,06,07,03,24,11.80
2015,06,07,03,25,11.80
2015,06,07,03,26,11.80
2015,06,07,03,27,11.80
2015,06,07,03,28,11.80
2015,06,07,03,29,11.80
2015,06,07,03,30,11.80
2015,06,07,03,31,11.80
2015,06,07,03,32,11.80
2015,06,07,03,33,11.80
2015,06,07,03,34,11.80
2015,06,07,03,35,11.80
2015,06,07,03,36,11.80
2015,06,07,03,37,11.80
2015,06,07,03,38,11.80
2015,06,07,03,39,11.80
2015,06,07,03,40,11.80
2015,06,07,03,41,11.80
2015,06,07,03,42,11.80
2015,06,07,03,43,11.80
2015,06,07,03,44,11.80
2015,06,07,03,45,11.80
2015,06,07,03,46,11.80
2015,06,07,03,47,11.70
2015,06,07,03,48,11.70
2015,06,07,03,49,11.70
2015,06,07,03,50,11.70
2015,06,07,03,51,11.70
2015,06,07,03,52,11.70
2015,06,07,03,53,11.70
2015,06,07,03,54,11.70
2015,06,07,03,55,11.70
2015,06,07,03,56,11.70
2015,06,07,03,57,11.70
2015,06,07,03,58,11.70
2015,06,07,03,59,11.70
2015,06,07,04,00,11.60
2015,06,07,04,01,11.60
2015,06,07,04,02,11.60
2015,06,07,04,03,11.60
2015,06,07,04,04,11.60
2015,06,07,04,05,11.60
2015,06,07,04,06,11.60
2015,06,07,04,07,11.50
2015,06,07,04,08,11.50
2015,06,07,04,09,11.50
2015,06,07,04,10,11.50
2015,06,07,04,11,11.50
2015,06,07,04,12,11.50
2015,06,07,04,13,11.40
2015,06,07,04,14,11.40
2015,06,07,04,15,11.40
2015,06,07,04,16,11.40
2015,06,07,04,17,11.40
2015,06,07,04,18,11.40
2015,06,07,04,19,11.40
2015,06,07,04,20,11.40
2015,06,07,04,21,11.40
2015,06,07,04,22,11.40
2015,06,07,04,23,11.40
2015,06,07,04,24,11.40
2015,06,07,04,25,11.40
2015,06,07,04,26,11.40
2015,06,07,04,27,11.40
2015,06,07,04,28,11.30
2015,06,07,04,29,11.30
2015,06,07,04,30,11.30
2015,06,07,04,31,11.30
2015,06,07,04,32,11.30
2015,06,07,04,33,11.30
2015,06,07,04,34,11.30
2015,06,07,04,35,11.30
2015,06,07,04,36,11.30
2015,06,07,04,37,11.30
2015,06,07,04,38,11.30
2015,06,07,04,39,11.30
2015,06,07,04,40,11.30
2015,06,07,04,41,11.30
2015,06,07,04,42,11.30
2015,06,07,04,43,11.30
2015,06,07,04,44,11.30
2015,06,07,04,45,11.30
2015,06,07,04,46,11.30
2015,06,07,04,47,11.30
2015,06,07,04,48,11.30
2015,06,07,04,49,11.30
2015,06,07,04,50,11.30
2015,06,07,04,51,11.30
2015,06,07,04,52,11.30
2015,06,07,04,53,11.30
2015,06,07,04,54,11.30
2015,06,07,04,55,11.30
2015,06,07,04,56,11.30
2015,06,07,04,57,11.30
2015,06,07,04,58,11.30
2015,06,07,04,59,11.30
2015,06,07,05,00,11.30
2015,06,07,05,01,11.30
2015,06,07,05,02,11.30
2015,06,07,05,03,11.30
2015,06,07,05,04,11.30
2015,06,07,05,05,11.30
2015,06,07,05,06,11.30
2015,06,07,05,07,11.30
2015,06,07,05,08,11.20
2015,06,07,05,09,11.20
2015,06,07,05,10,11.20
2015,06,07,05,11,11.20
2015,06,07,05,12,11.20
2015,06,07,05,13,11.20
2015,06,07,05,14,11.20
2015,06,07,05,15,11.20
2015,06,07,05,16,11.20
2015,06,07,05,17,11.10
2015,06,07,05,18,11.10
2015,06,07,05,19,11.10
2015,06,07,05,20,11.10
2015,06,07,05,21,11.10
2015,06,07,05,22,11.10
2015,06,07,05,23,11.10
2015,06,07,05,24,11.10
2015,06,07,05,25,11.10
2015,06,07,05,26,11.10
2015,06,07,05,27,11.10
2015,06,07,05,28,11.00
2015,06,07,05,29,11.00
2015,06,07,05,30,11.00
2015,06,07,05,31,11.00
2015,06,07,05,32,11.00
2015,06,07,05,33,11.00
2015,06,07,05,34,10.90
2015,06,07,05,35,10.90
2015,06,07,05,36,10.90
2015,06,07,05,37,10.90
2015,06,07,05,38,10.90
2015,06,07,05,39,10.90
2015,06,07,05,40,10.90
2015,06,07,05,41,10.90
2015,06,07,05,42,10.90
2015,06,07,05,43,10.90
2015,06,07,05,44,10.90
2015,06,07,05,45,10.90
2015,06,07,05,46,10.90
2015,06,07,05,47,10.90
2015,06,07,05,48,10.90
2015,06,07,05,49,10.90
2015,06,07,05,50,10.90
2015,06,07,05,51,10.90
2015,06,07,05,52,10.90
2015,06,07,05,53,11.00
2015,06,07,05,54,11.00
2015,06,07,05,55,11.00
2015,06,07,05,56,11.00
2015,06,07,05,57,11.00
2015,06,07,05,58,11.10
2015,06,07,05,59,11.10
2015,06,07,06,00,11.10
2015,06,07,06,01,11.10
2015,06,07,06,02,11.10
2015,06,07,06,03,11.10
2015,06,07,06,04,11.20
2015,06,07,06,05,11.20
2015,06,07,06,06,11.20
2015,06,07,06,07,11.20
2015,06,07,06,08,11.30
2015,06,07,06,09,11.30
2015,06,07,06,10,11.30
2015,06,07,06,11,11.40
2015,06,07,06,12,11.40
2015,06,07,06,13,11.40
2015,06,07,06,14,11.50
2015,06,07,06,15,11.50
2015,06,07,06,16,11.60
2015,06,07,06,17,11.60
2015,06,07,06,18,11.60
2015,06,07,06,19,11.70
2015,06,07,06,20,11.70
2015,06,07,06,21,11.70
2015,06,07,06,22,11.70
2015,06,07,06,23,11.70
2015,06,07,06,24,11.70
2015,06,07,06,25,11.80
2015,06,07,06,26,11.80
2015,06,07,06,27,11.80
2015,06,07,06,28,11.90
2015,06,07,06,29,11.90
2015,06,07,06,30,12.00
2015,06,07,06,31,12.00
2015,06,07,06,32,12.10
2015,06,07,06,33,12.10
2015,06,07,06,34,12.20
2015,06,07,06,35,12.30
2015,06,07,06,36,12.30
2015,06,07,06,37,12.40
2015,06,07,06,38,12.40
2015,06,07,06,39,12.50
2015,06,07,06,40,12.60
2015,06,07,06,41,12.60
2015,06,07,06,42,12.70
2015,06,07,06,43,12.80
2015,06,07,06,44,12.90
2015,06,07,06,45,13.00
2015,06,07,06,46,13.10
2015,06,07,06,47,13.20
2015,06,07,06,48,13.30
2015,06,07,06,49,13.40
2015,06,07,06,50,13.40
2015,06,07,06,51,13.50
2015,06,07,06,52,13.60
2015,06,07,06,53,13.70
2015,06,07,06,54,13.80
2015,06,07,06,55,13.90
2015,06,07,06,56,14.00
2015,06,07,06,57,14.10
2015,06,07,06,58,14.20
2015,06,07,06,59,14.30
2015,06,07,07,00,14.50
2015,06,07,07,01,14.60
2015,06,07,07,02,14.80
2015,06,07,07,03,14.90
2015,06,07,07,04,15.00
2015,06,07,07,05,15.00
2015,06,07,07,06,15.10
2015,06,07,07,07,15.10
2015,06,07,07,08,15.20
2015,06,07,07,09,15.20
2015,06,07,07,10,15.10
2015,06,07,07,11,15.10
2015,06,07,07,12,15.10
2015,06,07,07,13,15.00
2015,06,07,07,14,15.00
2015,06,07,07,15,14.90
2015,06,07,07,16,14.80
2015,06,07,07,17,14.70
2015,06,07,07,18,14.60
2015,06,07,07,19,14.50
2015,06,07,07,20,14.40
2015,06,07,07,21,14.40
2015,06,07,07,22,14.40
2015,06,07,07,23,14.40
2015,06,07,07,24,14.40
2015,06,07,07,25,14.40
2015,06,07,07,26,14.50
2015,06,07,07,27,14.50
2015,06,07,07,28,14.60
2015,06,07,07,29,14.60
2015,06,07,07,30,14.60
2015,06,07,07,31,14.60
2015,06,07,07,32,14.60
2015,06,07,07,33,14.60
2015,06,07,07,34,14.60
2015,06,07,07,35,14.60
2015,06,07,07,36,14.60
2015,06,07,07,37,14.60
2015,06,07,07,38,14.50
2015,06,07,07,39,14.40
2015,06,07,07,40,14.30
2015,06,07,07,41,14.20
2015,06,07,07,42,14.20
2015,06,07,07,43,14.10
2015,06,07,07,44,14.10
2015,06,07,07,45,14.10
2015,06,07,07,46,14.10
2015,06,07,07,47,14.10
2015,06,07,07,48,14.10
2015,06,07,07,49,14.10
2015,06,07,07,50,14.10
2015,06,07,07,51,14.00
2015,06,07,07,52,14.00
2015,06,07,07,53,13.90
2015,06,07,07,54,13.80
2015,06,07,07,55,13.70
2015,06,07,07,56,13.70
2015,06,07,07,57,13.70
2015,06,07,07,58,13.70
2015,06,07,07,59,13.70
2015,06,07,08,00,13.70
2015,06,07,08,01,13.80
2015,06,07,08,02,13.80
2015,06,07,08,03,13.90
2015,06,07,08,04,14.00
2015,06,07,08,05,14.00
2015,06,07,08,06,14.00
2015,06,07,08,07,14.00
2015,06,07,08,08,14.00
2015,06,07,08,09,14.00
2015,06,07,08,10,14.00
2015,06,07,08,11,13.90
2015,06,07,08,12,13.90
2015,06,07,08,13,14.00
2015,06,07,08,14,14.10
2015,06,07,08,15,14.10
2015,06,07,08,16,14.20
2015,06,07,08,17,14.10
2015,06,07,08,18,14.10
2015,06,07,08,19,14.10
2015,06,07,08,20,14.10
2015,06,07,08,21,14.00
2015,06,07,08,22,14.00
2015,06,07,08,23,14.00
2015,06,07,08,24,14.10
2015,06,07,08,25,14.00
2015,06,07,08,26,14.00
2015,06,07,08,27,13.90
2015,06,07,08,28,13.80
2015,06,07,08,29,13.60
2015,06,07,08,30,13.60
2015,06,07,08,31,13.50
2015,06,07,08,32,13.50
2015,06,07,08,33,13.40
2015,06,07,08,34,13.30
2015,06,07,08,35,13.20
2015,06,07,08,36,13.20
2015,06,07,08,37,13.10
2015,06,07,08,38,13.10
2015,06,07,08,39,13.10
2015,06,07,08,40,13.10
2015,06,07,08,41,13.10
2015,06,07,08,42,13.10
2015,06,07,08,43,13.10
2015,06,07,08,44,13.20
2015,06,07,08,45,13.20
2015,06,07,08,46,13.30
2015,06,07,08,47,13.30
2015,06,07,08,48,13.40
2015,06,07,08,49,13.50
2015,06,07,08,50,13.60
2015,06,07,08,51,13.70
2015,06,07,08,52,13.80
2015,06,07,08,53,13.70
2015,06,07,08,54,13.70
2015,06,07,08,55,13.70
2015,06,07,08,56,13.80
2015,06,07,08,57,13.80
2015,06,07,08,58,13.80
2015,06,07,08,59,13.70
2015,06,07,09,00,13.60
2015,06,07,09,01,13.50
2015,06,07,09,02,13.40
2015,06,07,09,03,13.30
2015,06,07,09,04,13.30
2015,06,07,09,05,13.30
2015,06,07,09,06,13.20
2015,06,07,09,07,13.20
2015,06,07,09,08,13.20
2015,06,07,09,09,13.10
2015,06,07,09,10,13.00
2015,06,07,09,11,12.90
2015,06,07,09,12,12.90
2015,06,07,09,13,12.90
2015,06,07,09,14,12.90
2015,06,07,09,15,13.00
2015,06,07,09,16,13.10
2015,06,07,09,17,13.10
2015,06,07,09,18,13.20
2015,06,07,09,19,13.20
2015,06,07,09,20,13.30
2015,06,07,09,21,13.30
2015,06,07,09,22,13.30
2015,06,07,09,23,13.30
2015,06,07,09,24,13.30
2015,06,07,09,25,13.20
2015,06,07,09,26,13.20
2015,06,07,09,27,13.20
2015,06,07,09,28,13.20
2015,06,07,09,29,13.20
2015,06,07,09,30,13.30
2015,06,07,09,31,13.30
2015,06,07,09,32,13.30
2015,06,07,09,33,13.40
2015,06,07,09,34,13.50
2015,06,07,09,35,13.60
2015,06,07,09,36,13.70
2015,06,07,09,37,13.80
2015,06,07,09,38,13.90
2015,06,07,09,39,14.10
2015,06,07,09,40,14.20
2015,06,07,09,41,14.40
2015,06,07,09,42,14.50
2015,06,07,09,43,14.60
2015,06,07,09,44,14.70
2015,06,07,09,45,14.80
2015,06,07,09,46,14.80
2015,06,07,09,47,14.80
2015,06,07,09,48,14.80
2015,06,07,09,49,14.60
2015,06,07,09,50,14.40
2015,06,07,09,51,14.30
2015,06,07,09,52,14.20
2015,06,07,09,53,14.00
2015,06,07,09,54,13.80
2015,06,07,09,55,13.70
2015,06,07,09,56,13.50
2015,06,07,09,57,13.30
2015,06,07,09,58,13.20
2015,06,07,09,59,13.20
2015,06,07,10,00,13.10
2015,06,07,10,01,13.10
2015,06,07,10,02,13.00
2015,06,07,10,03,12.90
2015,06,07,10,04,12.90
2015,06,07,10,05,12.80
2015,06,07,10,06,12.80
2015,06,07,10,07,12.70
2015,06,07,10,08,12.70
2015,06,07,10,09,12.80
2015,06,07,10,10,12.80
2015,06,07,10,11,12.90
2015,06,07,10,12,13.00
2015,06,07,10,13,13.10
2015,06,07,10,14,13.20
2015,06,07,10,15,13.20
2015,06,07,10,16,13.30
2015,06,07,10,17,13.40
2015,06,07,10,18,13.50
2015,06,07,10,19,13.50
2015,06,07,10,20,13.60
2015,06,07,10,21,13.70
2015,06,07,10,22,13.70
2015,06,07,10,23,13.60
2015,06,07,10,24,13.50
2015,06,07,10,25,13.40
2015,06,07,10,26,13.30
2015,06,07,10,27,13.20
2015,06,07,10,28,13.10
2015,06,07,10,29,13.00
2015,06,07,10,30,13.00
2015,06,07,10,31,12.90
2015,06,07,10,32,12.90
2015,06,07,10,33,12.80
2015,06,07,10,34,12.80
2015,06,07,10,35,12.80
2015,06,07,10,36,12.70
2015,06,07,10,37,12.70
2015,06,07,10,38,12.70
2015,06,07,10,39,12.60
2015,06,07,10,40,12.60
2015,06,07,10,41,12.60
2015,06,07,10,42,12.60
2015,06,07,10,43,12.60
2015,06,07,10,44,12.60
2015,06,07,10,45,12.60
2015,06,07,10,46,12.60
2015,06,07,10,47,12.70
2015,06,07,10,48,12.70
2015,06,07,10,49,12.70
2015,06,07,10,50,12.70
2015,06,07,10,51,12.80
2015,06,07,10,52,12.80
2015,06,07,10,53,12.80
2015,06,07,10,54,12.80
2015,06,07,10,55,12.80
2015,06,07,10,56,12.80
2015,06,07,10,57,12.80
2015,06,07,10,58,12.90
2015,06,07,10,59,12.90
2015,06,07,11,00,13.00
2015,06,07,11,01,13.10
2015,06,07,11,02,13.10
2015,06,07,11,03,13.20
2015,06,07,11,04,13.30
2015,06,07,11,05,13.40
2015,06,07,11,06,13.50
2015,06,07,11,07,13.50
2015,06,07,11,08,13.60
2015,06,07,11,09,13.60
2015,06,07,11,10,13.70
2015,06,07,11,11,13.80
2015,06,07,11,12,13.80
2015,06,07,11,13,13.90
2015,06,07,11,14,13.90
2015,06,07,11,15,13.90
2015,06,07,11,16,13.90
2015,06,07,11,17,14.00
2015,06,07,11,18,14.00
2015,06,07,11,19,14.00
2015,06,07,11,20,14.00
2015,06,07,11,21,14.10
2015,06,07,11,22,14.00
2015,06,07,11,23,13.90
2015,06,07,11,24,13.90
2015,06,07,11,25,13.80
2015,06,07,11,26,13.80
2015,06,07,11,27,13.80
2015,06,07,11,28,13.70
2015,06,07,11,29,13.70
2015,06,07,11,30,13.70
2015,06,07,11,31,13.70
2015,06,07,11,32,13.70
2015,06,07,11,33,13.80
2015,06,07,11,34,13.80
2015,06,07,11,35,13.80
2015,06,07,11,36,13.80
2015,06,07,11,37,13.80
2015,06,07,11,38,13.80
2015,06,07,11,39,13.80
2015,06,07,11,40,13.80
2015,06,07,11,41,13.80
2015,06,07,11,42,13.80
2015,06,07,11,43,13.80
2015,06,07,11,44,13.80
2015,06,07,11,45,13.80
2015,06,07,11,46,13.80
2015,06,07,11,47,13.80
2015,06,07,11,48,13.80
2015,06,07,11,49,13.80
2015,06,07,11,50,13.90
2015,06,07,11,51,13.90
2015,06,07,11,52,14.00
2015,06,07,11,53,14.00
2015,06,07,11,54,14.00
2015,06,07,11,55,14.00
2015,06,07,11,56,13.90
2015,06,07,11,57,13.90
2015,06,07,11,58,13.90
2015,06,07,11,59,13.90
2015,06,07,12,00,13.90
2015,06,07,12,01,13.90
2015,06,07,12,02,13.90
2015,06,07,12,03,13.80
2015,06,07,12,04,13.80
2015,06,07,12,05,13.80
2015,06,07,12,06,13.80
2015,06,07,12,07,13.80
2015,06,07,12,08,13.80
2015,06,07,12,09,13.80
2015,06,07,12,10,13.90
2015,06,07,12,11,14.00
2015,06,07,12,12,14.10
2015,06,07,12,13,14.20
2015,06,07,12,14,14.30
2015,06,07,12,15,14.30
2015,06,07,12,16,14.40
2015,06,07,12,17,14.40
2015,06,07,12,18,14.50
2015,06,07,12,19,14.50
2015,06,07,12,20,14.40
2015,06,07,12,21,14.40
2015,06,07,12,22,14.50
2015,06,07,12,23,14.50
2015,06,07,12,24,14.60
2015,06,07,12,25,14.60
2015,06,07,12,26,14.60
2015,06,07,12,27,14.70
2015,06,07,12,28,14.70
2015,06,07,12,29,14.80
2015,06,07,12,30,14.80
2015,06,07,12,31,14.90
2015,06,07,12,32,15.00
2015,06,07,12,33,15.10
2015,06,07,12,34,15.20
2015,06,07,12,35,15.30
2015,06,07,12,36,15.40
2015,06,07,12,37,15.40
2015,06,07,12,38,15.50
2015,06,07,12,39,15.50
2015,06,07,12,40,15.60
2015,06,07,12,41,15.60
2015,06,07,12,42,15.70
2015,06,07,12,43,15.70
2015,06,07,12,44,15.70
2015,06,07,12,45,15.80
2015,06,07,12,46,15.70
2015,06,07,12,47,15.70
2015,06,07,12,48,15.70
2015,06,07,12,49,15.80
2015,06,07,12,50,15.80
2015,06,07,12,51,15.80
2015,06,07,12,52,15.90
2015,06,07,12,53,16.00
2015,06,07,12,54,16.00
2015,06,07,12,55,16.10
2015,06,07,12,56,16.30
2015,06,07,12,57,16.50
2015,06,07,12,58,16.80
2015,06,07,12,59,16.80
2015,06,07,13,00,16.80
2015,06,07,13,01,16.60
2015,06,07,13,02,16.50
2015,06,07,13,03,16.50
2015,06,07,13,04,16.50
2015,06,07,13,05,16.50
2015,06,07,13,06,16.60
2015,06,07,13,07,16.60
2015,06,07,13,08,16.50
2015,06,07,13,09,16.40
2015,06,07,13,10,16.40
2015,06,07,13,11,16.50
2015,06,07,13,12,16.40
2015,06,07,13,13,16.40
2015,06,07,13,14,16.30
2015,06,07,13,15,16.30
2015,06,07,13,16,16.40
2015,06,07,13,17,16.50
2015,06,07,13,18,16.60
2015,06,07,13,19,16.70
2015,06,07,13,20,16.80
2015,06,07,13,21,16.80
2015,06,07,13,22,16.90
2015,06,07,13,23,17.00
2015,06,07,13,24,17.10
2015,06,07,13,25,17.10
2015,06,07,13,26,17.00
2015,06,07,13,27,17.00
2015,06,07,13,28,17.10
2015,06,07,13,29,17.10
2015,06,07,13,30,17.00
2015,06,07,13,31,16.80
2015,06,07,13,32,16.70
2015,06,07,13,33,16.50
2015,06,07,13,34,16.30
2015,06,07,13,35,16.20
2015,06,07,13,36,16.20
2015,06,07,13,37,16.10
2015,06,07,13,38,16.10
2015,06,07,13,39,16.10
2015,06,07,13,40,16.10
2015,06,07,13,41,16.10
2015,06,07,13,42,16.20
2015,06,07,13,43,16.30
2015,06,07,13,44,16.30
2015,06,07,13,45,16.40
2015,06,07,13,46,16.40
2015,06,07,13,47,16.40
2015,06,07,13,48,16.50
2015,06,07,13,49,16.50
2015,06,07,13,50,16.50
2015,06,07,13,51,16.40
2015,06,07,13,52,16.20
2015,06,07,13,53,16.10
2015,06,07,13,54,16.00
2015,06,07,13,55,16.00
2015,06,07,13,56,16.00
2015,06,07,13,57,16.00
2015,06,07,13,58,16.10
2015,06,07,13,59,16.20
2015,06,07,14,00,16.20
2015,06,07,14,01,16.20
2015,06,07,14,02,16.10
2015,06,07,14,03,16.00
2015,06,07,14,04,15.90
2015,06,07,14,05,15.80
2015,06,07,14,06,15.80
2015,06,07,14,07,15.80
2015,06,07,14,08,15.90
2015,06,07,14,09,16.00
2015,06,07,14,10,16.00
2015,06,07,14,11,16.00
2015,06,07,14,12,15.90
2015,06,07,14,13,15.80
2015,06,07,14,14,15.70
2015,06,07,14,15,15.70
2015,06,07,14,16,15.80
2015,06,07,14,17,15.80
2015,06,07,14,18,15.90
2015,06,07,14,19,16.00
2015,06,07,14,20,16.00
2015,06,07,14,21,16.10
2015,06,07,14,22,16.10
2015,06,07,14,23,16.20
2015,06,07,14,24,16.20
2015,06,07,14,25,16.20
2015,06,07,14,26,16.30
2015,06,07,14,27,16.30
2015,06,07,14,28,16.40
2015,06,07,14,29,16.50
2015,06,07,14,30,16.50
2015,06,07,14,31,16.50
2015,06,07,14,32,16.50
2015,06,07,14,33,16.40
2015,06,07,14,34,16.40
2015,06,07,14,35,16.40
2015,06,07,14,36,16.40
2015,06,07,14,37,16.40
2015,06,07,14,38,16.50
2015,06,07,14,39,16.50
2015,06,07,14,40,16.50
2015,06,07,14,41,16.40
2015,06,07,14,42,16.30
2015,06,07,14,43,16.30
2015,06,07,14,44,16.30
2015,06,07,14,45,16.30
2015,06,07,14,46,16.40
2015,06,07,14,47,16.30
2015,06,07,14,48,16.30
2015,06,07,14,49,16.30
2015,06,07,14,50,16.20
2015,06,07,14,51,16.20
2015,06,07,14,52,16.10
2015,06,07,14,53,16.10
2015,06,07,14,54,16.20
2015,06,07,14,55,16.50
2015,06,07,14,56,16.80
2015,06,07,14,57,17.10
2015,06,07,14,58,17.50
2015,06,07,14,59,18.00
2015,06,07,15,00,18.50
2015,06,07,15,01,18.90
2015,06,07,15,02,19.40
2015,06,07,15,03,19.80
2015,06,07,15,04,20.10
2015,06,07,15,05,20.40
2015,06,07,15,06,20.60
2015,06,07,15,07,20.80
2015,06,07,15,08,20.90
2015,06,07,15,09,21.10
2015,06,07,15,10,21.20
2015,06,07,15,11,21.30
2015,06,07,15,12,21.40
2015,06,07,15,13,21.50
2015,06,07,15,14,21.60
2015,06,07,15,15,21.60
2015,06,07,15,16,21.70
2015,06,07,15,17,21.80
2015,06,07,15,18,21.80
2015,06,07,15,19,21.80
2015,06,07,15,20,21.90
2015,06,07,15,21,21.90
2015,06,07,15,22,22.00
2015,06,07,15,23,22.00
2015,06,07,15,24,22.10
2015,06,07,15,25,22.10
2015,06,07,15,26,22.20
2015,06,07,15,27,22.20
2015,06,07,15,28,22.30
2015,06,07,15,29,22.30
2015,06,07,15,30,22.40
2015,06,07,15,31,22.50
2015,06,07,15,32,22.50
2015,06,07,15,33,22.60
2015,06,07,15,34,22.70
2015,06,07,15,35,22.80
2015,06,07,15,36,22.80
2015,06,07,15,37,22.80
2015,06,07,15,38,22.90
2015,06,07,15,39,22.90
2015,06,07,15,40,22.90
2015,06,07,15,41,23.00
2015,06,07,15,42,23.00
2015,06,07,15,43,23.10
2015,06,07,15,44,23.20
2015,06,07,15,45,23.20
2015,06,07,15,46,23.30
2015,06,07,15,47,23.30
2015,06,07,15,48,23.30
2015,06,07,15,49,23.40
2015,06,07,15,50,23.40
2015,06,07,15,51,23.40
2015,06,07,15,52,23.40
2015,06,07,15,53,23.40
2015,06,07,15,54,23.40
2015,06,07,15,55,23.50
2015,06,07,15,56,23.50
2015,06,07,15,57,23.50
2015,06,07,15,58,23.50
2015,06,07,15,59,23.40
2015,06,07,16,00,23.40
2015,06,07,16,01,23.40
2015,06,07,16,02,23.40
2015,06,07,16,03,23.40
2015,06,07,16,04,23.40
2015,06,07,16,05,23.40
2015,06,07,16,06,23.40
2015,06,07,16,07,23.40
2015,06,07,16,08,23.40
2015,06,07,16,09,23.40
2015,06,07,16,10,23.50
2015,06,07,16,11,23.60
2015,06,07,16,12,23.60
2015,06,07,16,13,23.70
2015,06,07,16,14,23.70
2015,06,07,16,15,23.80
2015,06,07,16,16,23.90
2015,06,07,16,17,23.90
2015,06,07,16,18,23.90
2015,06,07,16,19,23.90
2015,06,07,16,20,23.90
2015,06,07,16,21,23.90
2015,06,07,16,22,23.90
2015,06,07,16,23,23.90
2015,06,07,16,24,23.90
2015,06,07,16,25,23.80
2015,06,07,16,26,23.80
2015,06,07,16,27,23.70
2015,06,07,16,28,23.70
2015,06,07,16,29,23.60
2015,06,07,16,30,23.60
2015,06,07,16,31,23.50
2015,06,07,16,32,23.50
2015,06,07,16,33,23.40
2015,06,07,16,34,23.50
2015,06,07,16,35,23.50
2015,06,07,16,36,23.60
2015,06,07,16,37,23.70
2015,06,07,16,38,23.70
2015,06,07,16,39,23.70
2015,06,07,16,40,23.70
2015,06,07,16,41,23.80
2015,06,07,16,42,23.80
2015,06,07,16,43,23.90
2015,06,07,16,44,23.90
2015,06,07,16,45,24.00
2015,06,07,16,46,24.10
2015,06,07,16,47,24.10
2015,06,07,16,48,24.10
2015,06,07,16,49,24.10
2015,06,07,16,50,24.10
2015,06,07,16,51,24.20
2015,06,07,16,52,24.20
2015,06,07,16,53,24.20
2015,06,07,16,54,24.20
2015,06,07,16,55,24.20
2015,06,07,16,56,24.10
2015,06,07,16,57,24.10
2015,06,07,16,58,24.00
2015,06,07,16,59,23.90
2015,06,07,17,00,23.80
2015,06,07,17,01,23.80
2015,06,07,17,02,23.70
2015,06,07,17,03,23.70
2015,06,07,17,04,23.70
2015,06,07,17,05,23.70
2015,06,07,17,06,23.70
2015,06,07,17,07,23.70
2015,06,07,17,08,23.70
2015,06,07,17,09,23.70
2015,06,07,17,10,23.70
2015,06,07,17,11,23.70
2015,06,07,17,12,23.70
2015,06,07,17,13,23.80
2015,06,07,17,14,23.80
2015,06,07,17,15,23.80
2015,06,07,17,16,23.80
2015,06,07,17,17,23.80
2015,06,07,17,18,23.80
2015,06,07,17,19,23.80